Location: Avon School (historical)
(37.7514°N, 90.2201°W)
Time: 03:04:03
(UTC+00:00)

Vanguard 2 Rocket - Visible Passes

Search period start: 12 November 2024 00:00
Search period end: 22 November 2024 00:00
Orbit: 553 x 3297 km, 32.9° (Epoch: 11 November)

Date Brightness Start Highest point End Pass type
(mag) Time Alt. Az. Time Alt. Az. Time Alt. Az.
12 Nov 10.6 10:15:13 10° SSE 10:22:53 17° SE 10:32:26 10° E visible
13 Nov 10.3 11:20:03 10° SSW 11:31:33 36° SE 11:47:43 10° E visible
14 Nov 10.3 10:18:31 10° S 10:27:27 24° SE 10:39:38 10° E visible
15 Nov 10.5 09:19:22 10° SSE 09:23:55 13° SE 09:29:16 10° ESE visible
15 Nov 10.1 11:24:50 10° SSW 11:36:21 44° SE 11:53:28 10° E visible
16 Nov 10.0 10:22:44 10° SSW 10:32:07 31° SE 10:45:55 10° E visible
17 Nov 10.1 09:21:53 10° S 09:28:31 19° SE 09:37:22 10° E visible
17 Nov 9.7 11:29:58 10° SW 11:41:18 52° SSE 11:58:59 10° E visible
18 Nov 9.7 10:27:29 10° SSW 10:36:55 39° SE 10:51:43 10° E visible
19 Nov 9.7 09:27:19 15° S 09:33:12 25° SE 09:43:59 10° E visible
19 Nov 9.4 11:35:20 10° SW 11:46:26 60° SSE 12:04:22 10° E visible
20 Nov 10.0 08:27:57 12° SE 08:30:01 13° SE 08:34:49 10° ESE visible
20 Nov 9.4 10:33:27 14° SW 10:41:54 47° SSE 10:57:15 10° E visible
21 Nov 9.2 09:33:59 24° S 09:38:02 33° SE 09:49:57 10° E visible
21 Nov 9.2 11:40:54 10° WSW 11:51:43 66° SSE 12:09:41 10° E visible
